User: anonymous   Login
Location: Clatteringshaws Loch
(55.0508°N, 4.2860°W)
Time: 00:32:18
(UTC+01:00)
Language:

Sapphire - Orbit

View from above orbital plane
View from above orbital plane
View from above satellite
View from above satellite

Ground track
Ground track

The orbit data is extracted from the following two-line orbital elements,

1 26932U 01043D   16181.70228346 -.00000040  00000-0  16507-4 0  9997
2 26932  67.0569 282.4675 0008014 252.3209 107.7017 14.30216011769966
Epoch (UTC): 29 June 2016 16:51:17
Eccentricity: 0.0008014
inclination: 67.0569°
perigee height: 785 km
apogee height: 797 km
right ascension of ascending node: 282.4675°
argument of perigee: 252.3209°
revolutions per day: 14.30216011
mean anomaly at epoch: 107.7017°
orbit number at epoch: 76996

The dashed part of the orbit path shows where the satellite is in the earth's shadow,  

DLR